sat.trackr.live / text

‹ back to catalog

BSAT-3C (JCSAT-110R)

NORAD 37776 · 2011-041B

PAYLOAD ACTIVE UNKNOWN

§ Identity

Operator
Country
JPN
Launch date
2011-08-06
Launch site
FRGUI
Launch vehicle
Mass (kg)
RCS (m²)
23.59

Purposes: comms

External: N2YO · Heavens-Above · Gunter

§ Orbital elements

Epoch: 2026-05-25T00:50:36.291264Z

Period
1,436.08 min
Inclination
0.0193°
Eccentricity
0.0000098
Mean motion
1.00272679 rev/d
Perigee alt
35,785.9 km
Apogee alt
35,786.8 km
Semi-major
42,164.5 km
B*
0.0000e+0
RAAN
1.6067°
Arg perigee
111.2760°
Mean anomaly
252.3538°
Rev number
5,023

§ Raw data

BSAT-3C (JCSAT-110R)1 37776U 11041B   26145.03514226 -.00000353  00000+0  00000+0 0  99982 37776   0.0193   1.6067 0000098 111.2760 252.3538  1.00272679 50232

JSON: /api/v1/satellites/37776 · /tle

For live sub-satellite position, see the globe view (requires WebGL).

§ Visibility from observer

Set your observer location to see the next 7 days of passes ≥ 10°. The values pass through the URL so the page stays shareable.

No JS? Fill the form by hand. The geolocation button needs JavaScript.